Time,TemperatureF,DewpointF,PressureIn,WindDirection,WindDirectionDegrees,WindSpeedMPH,WindSpeedGustMPH,Humidity,HourlyPrecipIn,Conditions,Clouds,dailyrainin,SoftwareType,DateUTC
2013-02-03 00:01:00,38.0,37.0,-100.00,South,180,1.0,4.0,97,-99.99,,,-99.99,,2013-02-03 08:01:00,
2013-02-03 00:11:00,37.0,37.0,-100.00,SE,135,0.0,2.0,97,-99.99,,,-99.99,,2013-02-03 08:11:00,
2013-02-03 00:22:00,37.0,37.0,-100.00,SE,135,0.0,2.0,97,-99.99,,,-99.99,,2013-02-03 08:22:00,
2013-02-03 00:32:00,37.0,36.0,-100.00,East,90,1.0,2.0,97,-99.99,,,-99.99,,2013-02-03 08:32:00,
2013-02-03 00:41:00,37.0,36.0,-100.00,East,90,1.0,2.0,97,-99.99,,,-99.99,,2013-02-03 08:41:00,
2013-02-03 01:02:00,36.0,35.0,-100.00,East,90,1.0,3.0,97,-99.99,,,-99.99,,2013-02-03 09:02:00,
2013-02-03 01:11:00,36.0,35.0,-100.00,East,90,1.0,2.0,98,-99.99,,,-99.99,,2013-02-03 09:11:00,
2013-02-03 01:21:00,36.0,35.0,-100.00,East,90,1.0,2.0,98,-99.99,,,-99.99,,2013-02-03 09:21:00,
2013-02-03 01:31:00,36.0,36.0,-100.00,East,90,1.0,1.0,98,-99.99,,,-99.99,,2013-02-03 09:31:00,
2013-02-03 01:41:00,36.0,35.0,-100.00,SE,135,1.0,1.0,98,-99.99,,,-99.99,,2013-02-03 09:41:00,
2013-02-03 01:52:00,36.0,35.0,-100.00,SE,135,1.0,1.0,98,-99.99,,,-99.99,,2013-02-03 09:52:00,
2013-02-03 02:01:00,35.0,34.0,-100.00,SE,135,1.0,2.0,98,-99.99,,,-99.99,,2013-02-03 10:01:00,
2013-02-03 02:11:00,35.0,34.0,-100.00,SE,135,1.0,1.0,98,-99.99,,,-99.99,,2013-02-03 10:11:00,
2013-02-03 02:21:00,35.0,34.0,-100.00,SE,135,1.0,1.0,98,-99.99,,,-99.99,,2013-02-03 10:21:00,
2013-02-03 02:31:00,35.0,34.0,-100.00,North,0,0.0,1.0,98,-99.99,,,-99.99,,2013-02-03 10:31:00,
2013-02-03 02:41:00,34.0,34.0,-100.00,East,90,0.0,1.0,98,-99.99,,,-99.99,,2013-02-03 10:41:00,
2013-02-03 02:52:00,34.0,34.0,-100.00,East,90,0.0,1.0,98,-99.99,,,-99.99,,2013-02-03 10:52:00,
2013-02-03 03:02:00,34.0,34.0,-100.00,East,90,0.0,1.0,98,-99.99,,,-99.99,,2013-02-03 11:02:00,
2013-02-03 03:11:00,34.0,34.0,-100.00,North,0,0.0,2.0,98,-99.99,,,-99.99,,2013-02-03 11:11:00,
2013-02-03 03:22:00,34.0,34.0,-100.00,North,0,0.0,2.0,98,-99.99,,,-99.99,,2013-02-03 11:22:00,
2013-02-03 03:31:00,34.0,34.0,-100.00,East,90,2.0,2.0,99,-99.99,,,-99.99,,2013-02-03 11:31:00,
2013-02-03 03:41:00,34.0,34.0,-100.00,North,0,0.0,3.0,99,-99.99,,,-99.99,,2013-02-03 11:41:00,
2013-02-03 03:52:00,34.0,34.0,-100.00,North,0,0.0,3.0,99,-99.99,,,-99.99,,2013-02-03 11:52:00,
2013-02-03 04:02:00,34.0,33.0,-100.00,SE,135,1.0,2.0,99,-99.99,,,-99.99,,2013-02-03 12:02:00,
2013-02-03 04:11:00,34.0,34.0,-100.00,East,90,0.0,1.0,99,-99.99,,,-99.99,,2013-02-03 12:11:00,
2013-02-03 04:22:00,34.0,34.0,-100.00,East,90,0.0,1.0,99,-99.99,,,-99.99,,2013-02-03 12:22:00,
2013-02-03 04:32:00,33.0,33.0,-100.00,North,0,0.0,1.0,99,-99.99,,,-99.99,,2013-02-03 12:32:00,
2013-02-03 04:42:00,34.0,33.0,-100.00,East,90,0.0,2.0,99,-99.99,,,-99.99,,2013-02-03 12:42:00,
2013-02-03 04:53:00,34.0,33.0,-100.00,East,90,0.0,2.0,99,-99.99,,,-99.99,,2013-02-03 12:53:00,
2013-02-03 05:03:00,33.0,33.0,-100.00,North,0,0.0,2.0,99,-99.99,,,-99.99,,2013-02-03 13:03:00,
2013-02-03 05:11:00,33.0,33.0,-100.00,West,270,0.0,1.0,99,-99.99,,,-99.99,,2013-02-03 13:11:00,
2013-02-03 05:21:00,33.0,33.0,-100.00,West,270,0.0,1.0,99,-99.99,,,-99.99,,2013-02-03 13:21:00,
2013-02-03 05:32:00,33.0,32.0,-100.00,North,0,0.0,1.0,99,-99.99,,,-99.99,,2013-02-03 13:32:00,
2013-02-03 05:42:00,33.0,32.0,-100.00,East,90,0.0,2.0,99,-99.99,,,-99.99,,2013-02-03 13:42:00,
2013-02-03 05:52:00,32.0,32.0,-100.00,South,180,1.0,3.0,99,-99.99,,,-99.99,,2013-02-03 13:52:00,
2013-02-03 06:02:00,32.0,32.0,-100.00,South,180,1.0,3.0,99,-99.99,,,-99.99,,2013-02-03 14:02:00,
2013-02-03 06:11:00,33.0,33.0,-100.00,East,90,1.0,2.0,99,-99.99,,,-99.99,,2013-02-03 14:11:00,
2013-02-03 06:21:00,33.0,33.0,-100.00,East,90,1.0,2.0,99,-99.99,,,-99.99,,2013-02-03 14:21:00,
2013-02-03 06:32:00,33.0,33.0,-100.00,East,90,2.0,4.0,99,-99.99,,,-99.99,,2013-02-03 14:32:00,
2013-02-03 06:42:00,33.0,33.0,-100.00,North,0,2.0,3.0,101,-99.99,,,-99.99,,2013-02-03 14:42:00,
2013-02-03 06:52:00,33.0,33.0,-100.00,North,0,2.0,3.0,101,-99.99,,,-99.99,,2013-02-03 14:52:00,
2013-02-03 07:03:00,34.0,34.0,-100.00,North,0,0.0,6.0,101,-99.99,,,-99.99,,2013-02-03 15:03:00,
2013-02-03 07:11:00,37.0,37.0,-100.00,SW,225,1.0,3.0,101,-99.99,,,-99.99,,2013-02-03 15:11:00,
2013-02-03 07:22:00,37.0,37.0,-100.00,SW,225,1.0,3.0,101,-99.99,,,-99.99,,2013-02-03 15:22:00,
2013-02-03 07:32:00,38.0,38.0,-100.00,SE,135,1.0,2.0,101,-99.99,,,-99.99,,2013-02-03 15:32:00,
2013-02-03 07:41:00,39.0,39.0,-100.00,South,180,2.0,5.0,101,-99.99,,,-99.99,,2013-02-03 15:41:00,
2013-02-03 07:52:00,39.0,39.0,-100.00,South,180,2.0,5.0,101,-99.99,,,-99.99,,2013-02-03 15:52:00,
2013-02-03 08:02:00,40.0,40.0,-100.00,SW,225,2.0,5.0,101,-99.99,,,-99.99,,2013-02-03 16:02:00,
2013-02-03 08:11:00,41.0,41.0,-100.00,SW,225,3.0,6.0,99,-99.99,,,-99.99,,2013-02-03 16:11:00,
2013-02-03 08:21:00,41.0,41.0,-100.00,SW,225,3.0,6.0,99,-99.99,,,-99.99,,2013-02-03 16:21:00,
2013-02-03 08:32:00,41.0,40.0,-100.00,SW,225,0.0,2.0,98,-99.99,,,-99.99,,2013-02-03 16:32:00,
2013-02-03 08:41:00,40.0,39.0,-100.00,North,0,1.0,3.0,98,-99.99,,,-99.99,,2013-02-03 16:41:00,
2013-02-03 08:52:00,40.0,39.0,-100.00,North,0,1.0,3.0,98,-99.99,,,-99.99,,2013-02-03 16:52:00,
2013-02-03 09:02:00,41.0,40.0,-100.00,North,0,2.0,3.0,98,-99.99,,,-99.99,,2013-02-03 17:02:00,
2013-02-03 09:11:00,41.0,40.0,-100.00,North,0,1.0,3.0,98,-99.99,,,-99.99,,2013-02-03 17:11:00,
2013-02-03 09:21:00,41.0,40.0,-100.00,North,0,1.0,3.0,98,-99.99,,,-99.99,,2013-02-03 17:21:00,
2013-02-03 09:31:00,41.0,40.0,-100.00,North,0,1.0,3.0,98,-99.99,,,-99.99,,2013-02-03 17:31:00,
2013-02-03 09:42:00,41.0,41.0,-100.00,SW,225,3.0,5.0,98,-99.99,,,-99.99,,2013-02-03 17:42:00,
2013-02-03 09:52:00,41.0,41.0,-100.00,SW,225,3.0,5.0,98,-99.99,,,-99.99,,2013-02-03 17:52:00,
2013-02-03 10:02:00,42.0,41.0,-100.00,SW,225,3.0,6.0,97,-99.99,,,-99.99,,2013-02-03 18:02:00,
2013-02-03 10:11:00,42.0,41.0,-100.00,SW,225,3.0,6.0,97,-99.99,,,-99.99,,2013-02-03 18:11:00,
2013-02-03 10:23:00,42.0,41.0,-100.00,SW,225,3.0,6.0,97,-99.99,,,-99.99,,2013-02-03 18:23:00,
2013-02-03 10:32:00,42.0,41.0,-100.00,SW,225,3.0,8.0,96,-99.99,,,-99.99,,2013-02-03 18:32:00,
2013-02-03 10:41:00,43.0,41.0,-100.00,SW,225,2.0,6.0,95,-99.99,,,-99.99,,2013-02-03 18:41:00,
2013-02-03 10:52:00,43.0,41.0,-100.00,SW,225,2.0,6.0,95,-99.99,,,-99.99,,2013-02-03 18:52:00,
2013-02-03 11:02:00,43.0,41.0,-100.00,SW,225,2.0,6.0,94,-99.99,,,-99.99,,2013-02-03 19:02:00,
2013-02-03 11:11:00,43.0,41.0,-100.00,SW,225,3.0,6.0,94,-99.99,,,-99.99,,2013-02-03 19:11:00,
2013-02-03 11:22:00,43.0,41.0,-100.00,SW,225,3.0,6.0,94,-99.99,,,-99.99,,2013-02-03 19:22:00,
2013-02-03 11:31:00,43.0,41.0,-100.00,SW,225,3.0,6.0,92,-99.99,,,-99.99,,2013-02-03 19:31:00,
2013-02-03 11:41:00,44.0,41.0,-100.00,South,180,3.0,10.0,90,-99.99,,,-99.99,,2013-02-03 19:41:00,
2013-02-03 11:52:00,44.0,41.0,-100.00,South,180,3.0,10.0,90,-99.99,,,-99.99,,2013-02-03 19:52:00,
2013-02-03 12:01:00,43.0,41.0,-100.00,SW,225,5.0,10.0,92,-99.99,,,-99.99,,2013-02-03 20:01:00,
2013-02-03 12:11:00,43.0,41.0,-100.00,South,180,6.0,10.0,93,-99.99,,,-99.99,,2013-02-03 20:11:00,
2013-02-03 12:21:00,43.0,41.0,-100.00,South,180,6.0,10.0,93,-99.99,,,-99.99,,2013-02-03 20:21:00,
2013-02-03 12:32:00,43.0,41.0,-100.00,SW,225,7.0,10.0,93,-99.99,,,-99.99,,2013-02-03 20:32:00,
2013-02-03 12:42:00,43.0,41.0,-100.00,South,180,4.0,9.0,93,-99.99,,,-99.99,,2013-02-03 20:42:00,
2013-02-03 12:52:00,43.0,41.0,-100.00,South,180,4.0,9.0,93,-99.99,,,-99.99,,2013-02-03 20:52:00,
2013-02-03 13:03:00,44.0,42.0,-100.00,South,180,4.0,7.0,92,-99.99,,,-99.99,,2013-02-03 21:03:00,
2013-02-03 13:11:00,44.0,41.0,-100.00,SW,225,4.0,7.0,90,-99.99,,,-99.99,,2013-02-03 21:11:00,
2013-02-03 13:21:00,44.0,41.0,-100.00,South,180,3.0,5.0,89,-99.99,,,-99.99,,2013-02-03 21:21:00,
2013-02-03 13:32:00,44.0,41.0,-100.00,South,180,3.0,5.0,89,-99.99,,,-99.99,,2013-02-03 21:32:00,
2013-02-03 13:42:00,45.0,42.0,-100.00,SW,225,4.0,6.0,88,-99.99,,,-99.99,,2013-02-03 21:42:00,
2013-02-03 13:52:00,45.0,42.0,-100.00,SW,225,4.0,6.0,88,-99.99,,,-99.99,,2013-02-03 21:52:00,
2013-02-03 14:01:00,45.0,42.0,-100.00,SW,225,3.0,7.0,86,-99.99,,,-99.99,,2013-02-03 22:01:00,
2013-02-03 14:11:00,46.0,42.0,-100.00,SW,225,5.0,8.0,84,-99.99,,,-99.99,,2013-02-03 22:11:00,
2013-02-03 14:21:00,46.0,42.0,-100.00,SW,225,5.0,8.0,84,-99.99,,,-99.99,,2013-02-03 22:21:00,
2013-02-03 14:32:00,46.0,42.0,-100.00,SW,225,3.0,6.0,84,-99.99,,,-99.99,,2013-02-03 22:32:00,
2013-02-03 14:41:00,47.0,41.0,-100.00,SW,225,5.0,7.0,82,-99.99,,,-99.99,,2013-02-03 22:41:00,
2013-02-03 14:52:00,47.0,41.0,-100.00,SW,225,5.0,7.0,82,-99.99,,,-99.99,,2013-02-03 22:52:00,
2013-02-03 15:01:00,47.0,41.0,-100.00,SW,225,4.0,9.0,80,-99.99,,,-99.99,,2013-02-03 23:01:00,
2013-02-03 15:11:00,47.0,41.0,-100.00,SW,225,4.0,7.0,79,-99.99,,,-99.99,,2013-02-03 23:11:00,
2013-02-03 15:22:00,47.0,41.0,-100.00,SW,225,4.0,7.0,79,-99.99,,,-99.99,,2013-02-03 23:22:00,
2013-02-03 15:32:00,47.0,41.0,-100.00,SW,225,5.0,8.0,80,-99.99,,,-99.99,,2013-02-03 23:32:00,
2013-02-03 15:41:00,47.0,41.0,-100.00,SW,225,6.0,11.0,80,-99.99,,,-99.99,,2013-02-03 23:41:00,
2013-02-03 15:52:00,47.0,41.0,-100.00,SW,225,6.0,11.0,80,-99.99,,,-99.99,,2013-02-03 23:52:00,
2013-02-03 16:01:00,47.0,41.0,-100.00,SW,225,4.0,9.0,80,-99.99,,,-99.99,,2013-02-04 00:01:00,
2013-02-03 16:11:00,47.0,41.0,-100.00,SW,225,3.0,9.0,79,-99.99,,,-99.99,,2013-02-04 00:11:00,
2013-02-03 16:22:00,47.0,41.0,-100.00,SW,225,3.0,9.0,79,-99.99,,,-99.99,,2013-02-04 00:22:00,
2013-02-03 16:31:00,47.0,41.0,-100.00,SW,225,5.0,9.0,80,-99.99,,,-99.99,,2013-02-04 00:31:00,
2013-02-03 16:41:00,47.0,41.0,-100.00,South,180,4.0,9.0,80,-99.99,,,-99.99,,2013-02-04 00:41:00,
2013-02-03 16:52:00,47.0,41.0,-100.00,South,180,4.0,9.0,80,-99.99,,,-99.99,,2013-02-04 00:52:00,
2013-02-03 17:01:00,47.0,40.0,-100.00,SW,225,5.0,9.0,77,-99.99,,,-99.99,,2013-02-04 01:01:00,
2013-02-03 17:11:00,47.0,41.0,-100.00,SW,225,4.0,8.0,79,-99.99,,,-99.99,,2013-02-04 01:11:00,
2013-02-03 17:21:00,47.0,41.0,-100.00,SW,225,4.0,8.0,79,-99.99,,,-99.99,,2013-02-04 01:21:00,
2013-02-03 17:31:00,47.0,41.0,-100.00,SW,225,4.0,7.0,79,-99.99,,,-99.99,,2013-02-04 01:31:00,
2013-02-03 17:41:00,46.0,41.0,-100.00,SW,225,4.0,9.0,82,-99.99,,,-99.99,,2013-02-04 01:41:00,
2013-02-03 17:52:00,46.0,41.0,-100.00,SW,225,4.0,9.0,82,-99.99,,,-99.99,,2013-02-04 01:52:00,
2013-02-03 18:01:00,46.0,41.0,-100.00,SW,225,4.0,9.0,82,-99.99,,,-99.99,,2013-02-04 02:01:00,
2013-02-03 18:11:00,46.0,41.0,-100.00,South,180,4.0,8.0,83,-99.99,,,-99.99,,2013-02-04 02:11:00,
2013-02-03 18:21:00,46.0,41.0,-100.00,South,180,4.0,8.0,83,-99.99,,,-99.99,,2013-02-04 02:21:00,
2013-02-03 18:31:00,46.0,41.0,-100.00,SW,225,4.0,8.0,82,-99.99,,,-99.99,,2013-02-04 02:31:00,
2013-02-03 18:41:00,46.0,41.0,-100.00,SW,225,4.0,8.0,83,-99.99,,,-99.99,,2013-02-04 02:41:00,
2013-02-03 18:52:00,46.0,41.0,-100.00,SW,225,4.0,8.0,84,-99.99,,,-99.99,,2013-02-04 02:52:00,
2013-02-03 19:01:00,46.0,41.0,-100.00,SW,225,4.0,8.0,84,-99.99,,,-99.99,,2013-02-04 03:01:00,
2013-02-03 19:11:00,46.0,41.0,-100.00,SW,225,5.0,9.0,83,-99.99,,,-99.99,,2013-02-04 03:11:00,
2013-02-03 19:21:00,46.0,41.0,-100.00,SW,225,5.0,9.0,83,-99.99,,,-99.99,,2013-02-04 03:21:00,
2013-02-03 19:32:00,45.0,41.0,-100.00,SW,225,4.0,8.0,84,-99.99,,,-99.99,,2013-02-04 03:32:00,
2013-02-03 19:41:00,45.0,41.0,-100.00,SW,225,4.0,7.0,86,-99.99,,,-99.99,,2013-02-04 03:41:00,
2013-02-03 19:52:00,45.0,41.0,-100.00,SW,225,4.0,7.0,86,-99.99,,,-99.99,,2013-02-04 03:52:00,
2013-02-03 20:01:00,45.0,41.0,-100.00,SW,225,5.0,9.0,85,-99.99,,,-99.99,,2013-02-04 04:01:00,
2013-02-03 20:11:00,45.0,41.0,-100.00,SW,225,3.0,6.0,85,-99.99,,,-99.99,,2013-02-04 04:11:00,
2013-02-03 20:21:00,45.0,41.0,-100.00,South,180,3.0,8.0,85,-99.99,,,-99.99,,2013-02-04 04:21:00,
2013-02-03 20:31:00,45.0,41.0,-100.00,South,180,3.0,8.0,85,-99.99,,,-99.99,,2013-02-04 04:31:00,
2013-02-03 20:41:00,45.0,41.0,-100.00,SW,225,4.0,6.0,85,-99.99,,,-99.99,,2013-02-04 04:41:00,
2013-02-03 20:52:00,45.0,41.0,-100.00,SW,225,4.0,6.0,85,-99.99,,,-99.99,,2013-02-04 04:52:00,
2013-02-03 21:03:00,45.0,41.0,-100.00,North,0,1.0,3.0,85,-99.99,,,-99.99,,2013-02-04 05:03:00,
2013-02-03 21:11:00,44.0,41.0,-100.00,North,0,0.0,3.0,88,-99.99,,,-99.99,,2013-02-04 05:11:00,
2013-02-03 21:22:00,44.0,41.0,-100.00,North,0,0.0,3.0,88,-99.99,,,-99.99,,2013-02-04 05:22:00,
2013-02-03 21:33:00,44.0,41.0,-100.00,North,0,1.0,2.0,89,-99.99,,,-99.99,,2013-02-04 05:33:00,
2013-02-03 21:42:00,44.0,41.0,-100.00,North,0,1.0,2.0,90,-99.99,,,-99.99,,2013-02-04 05:42:00,
2013-02-03 21:52:00,44.0,41.0,-100.00,North,0,1.0,2.0,90,-99.99,,,-99.99,,2013-02-04 05:52:00,
2013-02-03 22:01:00,44.0,41.0,-100.00,NW,315,1.0,3.0,89,-99.99,,,-99.99,,2013-02-04 06:01:00,
2013-02-03 22:11:00,44.0,41.0,-100.00,NE,45,0.0,2.0,89,-99.99,,,-99.99,,2013-02-04 06:11:00,
2013-02-03 22:21:00,44.0,41.0,-100.00,NE,45,0.0,2.0,89,-99.99,,,-99.99,,2013-02-04 06:21:00,
2013-02-03 22:31:00,44.0,41.0,-100.00,NE,45,0.0,1.0,90,-99.99,,,-99.99,,2013-02-04 06:31:00,
2013-02-03 22:41:00,44.0,41.0,-100.00,North,0,1.0,2.0,90,-99.99,,,-99.99,,2013-02-04 06:41:00,
2013-02-03 22:52:00,44.0,41.0,-100.00,North,0,1.0,2.0,90,-99.99,,,-99.99,,2013-02-04 06:52:00,
2013-02-03 23:01:00,44.0,41.0,-100.00,SW,225,3.0,6.0,89,-99.99,,,-99.99,,2013-02-04 07:01:00,
2013-02-03 23:11:00,44.0,41.0,-100.00,North,0,2.0,4.0,90,-99.99,,,-99.99,,2013-02-04 07:11:00,
2013-02-03 23:21:00,44.0,41.0,-100.00,North,0,2.0,4.0,90,-99.99,,,-99.99,,2013-02-04 07:21:00,
2013-02-03 23:31:00,43.0,41.0,-100.00,NW,315,1.0,1.0,91,-99.99,,,-99.99,,2013-02-04 07:31:00,
2013-02-03 23:41:00,43.0,41.0,-100.00,East,90,1.0,4.0,91,-99.99,,,-99.99,,2013-02-04 07:41:00,
2013-02-03 23:52:00,43.0,41.0,-100.00,East,90,1.0,4.0,91,-99.99,,,-99.99,,2013-02-04 07:52:00,